This is the latest recevied weather packets stored in our database for station/object BV1EV-2. If no packets are shown the sender has not sent any weather packets the latest 10 day(s).
| Time | Temp. | Humidity | Pressure | Rain* | Wind** | Luminosity | Snow |
|---|---|---|---|---|---|---|---|
| 1778062668 | 29.44° C | 48% | 1010.7 hPa | - | - | - | - |
| 1778061467 | 29.44° C | 50% | 1010.6 hPa | - | - | - | - |
| 1778060268 | 29.44° C | 55% | 1010.6 hPa | - | - | - | - |
| 1778059068 | 29.44° C | 50% | 1010.6 hPa | - | - | - | - |
| 1778057868 | 29.44° C | 50% | 1010.5 hPa | - | - | - | - |
| 1778056668 | 29.44° C | 49% | 1010.5 hPa | - | - | - | - |
| 1778055468 | 29.44° C | 49% | 1010.5 hPa | - | - | - | - |
| 1778054268 | 29.44° C | 49% | 1010.7 hPa | - | - | - | - |
| 1778053067 | 29.44° C | 48% | 1010.8 hPa | - | - | - | - |
| 1778051867 | 29.44° C | 48% | 1010.8 hPa | - | - | - | - |
| 1778050667 | 29.44° C | 50% | 1010.9 hPa | - | - | - | - |
| 1778049467 | 30° C | 50% | 1010.9 hPa | - | - | - | - |
| 1778048267 | 29.44° C | 58% | 1010.9 hPa | - | - | - | - |
| 1778047067 | 28.33° C | 61% | 1011 hPa | - | - | - | - |
| 1778045868 | 28.33° C | 61% | 1011.1 hPa | - | - | - | - |
| 1778044667 | 28.89° C | 59% | 1011.1 hPa | - | - | - | - |
| 1778043467 | 28.33° C | 62% | 1011.3 hPa | - | - | - | - |
| 1778042267 | 28.33° C | 61% | 1011.6 hPa | - | - | - | - |
| 1778041067 | 28.33° C | 61% | 1011.8 hPa | - | - | - | - |
| 1778039867 | 27.78° C | 61% | 1012 hPa | - | - | - | - |
| 1778038667 | 27.78° C | 61% | 1012.1 hPa | - | - | - | - |
| 1778037467 | 27.78° C | 60% | 1012.2 hPa | - | - | - | - |
| 1778036267 | 27.22° C | 60% | 1012.3 hPa | - | - | - | - |
| 1778035067 | 27.22° C | 59% | 1012.2 hPa | - | - | - | - |
| 1778033868 | 26.67° C | 61% | 1012.2 hPa | - | - | - | - |
* Rain since midnight (hover to see other rain measurements)
** Current wind speed in m/s (hover to see current wind gust speed)